Regional Weather Roundup
Issued by NWS

Home | Current Version | Previous Version | Graphics & Text | Print | Product List | Glossary On
Versions: 1 2 3 4 5 6 7 8 9 10 11 12 13 14 15 16 17 18 19 20 21 22 23 24 25 26 27
000
ASUS45 KTFX 280910
RWRMT
MONTANA REGIONAL WEATHER ROUNDUP
NATIONAL WEATHER SERVICE GREAT FALLS MT
300 AM MDT WED SEP 28 2016

NOTE: "FAIR" INDICATES FEW OR NO CLOUDS BELOW 12000 FEET WITH NO
SIGNIFICANT WEATHER AND/OR OBSTRUCTIONS TO VISIBILITY.

MTZ001>007-043-281000-
WEST OF THE DIVIDE

CITY           SKY/WX    TMP DP  RH WIND       PRES   REMARKS
KALISPELL      CLEAR     59  39  47 N17G26    30.11R
MISSOULA       CLEAR     52  44  74 CALM      30.13S
BUTTE          CLEAR     43  37  79 W3        30.25S
MULLAN PASS    CLEAR     56  42  59 SE5       30.21S
ANACONDA         N/A     46  36  66 SW5       30.24R
DEER LODGE       N/A     52  41  66 W5        30.25R
EUREKA           N/A     50  43  76 E3        30.14S
HAMILTON         N/A     52  43  71 S5        30.14S
LIBBY            N/A     46  43  87 CALM      30.10S
RONAN            N/A     60  46  59 N8        30.13S
$$

MTZ008-052>055-281000-
SOUTHWEST MONTANA

CITY           SKY/WX    TMP DP  RH WIND       PRES   REMARKS
BOZEMAN        CLEAR     49  41  74 S7        30.23R
DILLON         CLEAR     46  36  68 S7        30.22S
W YELLOWSTONE    N/A     32  32 100 SW3       30.35R
ENNIS          CLEAR     46  36  66 CALM      30.30R
THREE FORKS      N/A     54  33  44 CALM      30.19R
TWIN BRIDGES     N/A     46  35  65 E3        30.19R
$$

MTZ009-010-012-014-046-048-049-054-281000-
EAST SLOPES AND CENTRAL MONTANA

CITY           SKY/WX    TMP DP  RH WIND       PRES   REMARKS
CUT BANK       CLEAR     39  34  82 NW10      30.32S
GREAT FALLS    CLEAR     40  36  86 W5        30.31S
MALMSTROM AFB  CLEAR     44  39  84 SW7       30.31S
HELENA         CLEAR     53  39  59 W12       30.26R
AUGUSTA          N/A     42  36  77 N7        30.32R
BOWMANS CRNR     N/A     44  36  73 N8        30.30S
CHOTEAU          N/A     45  37  76 NW8       30.34S
CONRAD           N/A     46  41  83 W3        30.31R
FAIRFIELD        N/A     42  36  79 NW5       30.31S
POWER            N/A     40  36  86 N7        30.30S
RAYNESFORD       N/A     47  41  77 NW2       30.31R
$$

MTZ011-013-016-021-045-047-050-051-281000-
NORTH CENTRAL MONTANA

CITY           SKY/WX    TMP DP  RH WIND       PRES   REMARKS
HAVRE          CLOUDY    50  42  74 N8        30.29R
LEWISTOWN      CLEAR     45  42  89 SW7       30.30R
N BAR RANCH      N/A     50  45  81 NW8       30.30R
CHINOOK          N/A     48  45  87 W3        30.29R
DENTON           N/A     52  42  70 NW13G18   30.25R
GEYSER           N/A     42  36  77 N7        30.32R
GRASS RANGE      N/A     48  44  88 W3        30.25R
JUDITH GAP       N/A     46  43  90 N17G23    30.28R
ROY              N/A     49  46  89 MISG      30.25R
STANFORD         N/A     47  41  80 NW10      30.30R
WINIFRED         N/A     48  44  86 MISG      30.27R
$$

MTZ017>020-022>027-061-062-281000-
NORTHEAST MONTANA

CITY           SKY/WX    TMP DP  RH WIND       PRES   REMARKS
GLASGOW        CLEAR     55  45  68 NW10      30.16R
JORDAN           N/A     55  47  74 N9        30.16R
SIDNEY         CLEAR     59  49  69 N18       30.09R
WOLF POINT     CLEAR     60  47  61 N16G25    30.12R
PLENTYWOOD       N/A     54  48  82 NW14G20   30.12R
POPLAR           N/A     57  46  67 E3        30.13R
$$

MTZ028>42-056>058-281000-
SOUTHCENTRAL AND SOUTHEAST MONTANA

CITY           SKY/WX    TMP DP  RH WIND       PRES   REMARKS
BAKER          CLEAR     50  46  86 NW3       30.12R
BILLINGS       CLEAR     57  42  57 N8        30.19R
LIVINGSTON     CLEAR     50  40  68 W5        30.24R
MILES CITY     CLEAR     51  45  79 SW5       30.12R
BIG TIMBER     CLEAR     50  39  66 W8        30.26R
FORSYTH          N/A     52  48  87 CALM      30.14R
HARLOWTON        N/A     52  44  75 N28G33    30.23R
LAUREL           N/A     56  41  57 W6        30.15R
ROUNDUP          N/A     57  44  62 N9        30.13R
$$

REGIONAL REPORTS...DAKOTAS

CITY           SKY/WX    TMP DP  RH WIND       PRES   REMARKS
WILLISTON      CLEAR     49  45  86 N5        30.09R
MINOT          CLEAR     43  37  79 E5        30.11R
DICKINSON      CLEAR     48  42  80 S8        30.08R
BEACH            N/A     46  46 100 SW5       30.13R
CROSBY           N/A     45  45 100 SW6       30.12R
WATFORD CITY     N/A     46  46 100 CALM      30.09R
BISMARCK       CLOUDY    40  36  86 E7        30.13R
GRAND FORKS    CLOUDY    40  38  93 NW6       30.12R
FARGO          CLOUDY    40  37  89 N7        30.10R
BUFFALO SD       N/A     57  45  64 NW3       30.06R
RAPID CITY     CLEAR     54  41  61 NW10      30.13S
$$

REGIONAL REPORTS...WYOMING/IDAHO/WASHINGTON

CITY           SKY/WX    TMP DP  RH WIND       PRES   REMARKS
GILLETTE       CLEAR     48  43  82 S5        30.20S
SHERIDAN       CLEAR     46  40  79 CALM      30.19S
BUFFALO WY     CLEAR     56  37  49 W8        30.25S
CODY           CLEAR     56  41  57 SW9       30.26S
YELLOWSTONE LA   N/A     32  32 100 NW3       30.42R
IDAHO FALLS    CLEAR     44  40  85 N5        30.19S
SALMON         CLEAR     45  37  76 CALM      30.17R
BOISE          CLEAR     63  39  41 E10       30.02S
SPOKANE        PTCLDY    51  37  58 W3        30.05S
$$

REGIONAL REPORTS...ALBERTA

CITY           SKY/WX    TMP DP  RH WIND       PRES   REMARKS
EDMONTON       PTCLDY    39  27  60 W7        30.32R
CALGARY        CLOUDY    48  39  71 SE7       30.32S
LETHBRIDGE     CLOUDY    48  39  71 S7        30.33S
MEDICINE HAT   CLOUDY    45  39  81 SW5       30.32R
WATERTON GATE    N/A     45  36  70 N3          N/A
MILK RIVER       N/A     36  32  87 NW6         N/A  WCI  31
$$

REGIONAL REPORTS...SASKATCHEWAN

CITY           SKY/WX    TMP DP  RH WIND       PRES   REMARKS
SWIFT CURRENT  CLEAR     43  39  87 NW9       30.27R
REGINA         CLEAR     50  46  87 N15G22    30.14R
SASKATOON      CLEAR     37  37 100 W5        30.27R
CYPRESS HILLS    N/A     43  34  70 N7          N/A
VAL MARIE        N/A     48  39  71 N10         N/A
ROCKGLEN         N/A     48  43  81 N18G26      N/A
ASSINIBOIA       N/A     32  28  86 SW3         N/A
$$




USA.gov is the U.S. government's official web portal to all federal, state and local government web resources and services.